| time (UTC) | temp C | wind direction | speed KPH | gust KPH | rain 1hr cm | rain 24hr cm | rain mn cm | humidity % | barometer mb |
| 20260505173340 | 22 | 200 | 12.9 | 22.5 | 0.00 | 0.00 | 0.00 | 44 | 1002.8 |
| 20260505172841 | 22 | 151 | 4.8 | 20.9 | 0.00 | 0.00 | 0.00 | 43 | 1002.9 |
| 20260505172340 | 22 | 211 | 3.2 | 30.6 | 0.00 | 0.00 | 0.00 | 44 | 1003.0 |
| 20260505171840 | 22 | 223 | 9.7 | 30.6 | 0.00 | 0.00 | 0.00 | 43 | 1003.2 |
| 20260505171340 | 22 | 175 | 11.3 | 22.5 | 0.00 | 0.00 | 0.00 | 43 | 1003.1 |
| 20260505170853 | 23 | 226 | 8.0 | 17.7 | 0.00 | 0.00 | 0.00 | 43 | 1002.9 |
| 20260505170340 | 23 | 221 | 11.3 | 19.3 | 0.00 | 0.00 | 0.00 | 42 | 1003.1 |
| 20260505165840 | 23 | 215 | 9.7 | 24.1 | 0.00 | 0.00 | 0.00 | 42 | 1003.1 |
| 20260505165340 | 23 | 158 | 4.8 | 24.1 | 0.00 | 0.00 | 0.00 | 41 | 1003.1 |
| 20260505164337 | 23 | 231 | 8.0 | 25.7 | 0.00 | 0.00 | 0.00 | 41 | 1003.1 |
| 20260505163838 | 23 | 216 | 12.9 | 25.7 | 0.00 | 0.00 | 0.00 | 40 | 1003.2 |
| 20260505163338 | 24 | 194 | 6.4 | 17.7 | 0.00 | 0.00 | 0.00 | 40 | 1003.0 |
| 20260505162338 | 25 | 128 | 8.0 | 17.7 | 0.00 | 0.00 | 0.00 | 37 | 1002.8 |
| 20260505161838 | 25 | 169 | 12.9 | 17.7 | 0.00 | 0.00 | 0.00 | 37 | 1002.9 |
| 20260505161337 | 25 | 187 | 14.5 | 29.0 | 0.00 | 0.00 | 0.00 | 36 | 1003.1 |
| 20260505160837 | 25 | 212 | 16.1 | 29.0 | 0.00 | 0.00 | 0.00 | 35 | 1003.1 |
| 20260505160337 | 25 | 169 | 6.4 | 24.1 | 0.00 | 0.00 | 0.00 | 36 | 1003.1 |
| 20260505153338 | 26 | 197 | 22.5 | 30.6 | 0.00 | 0.00 | 0.00 | 35 | 1003.2 |
| 20260505152838 | 26 | 214 | 11.3 | 20.9 | 0.00 | 0.00 | 0.00 | 34 | 1003.1 |
| 20260505152338 | 26 | 197 | 12.9 | 20.9 | 0.00 | 0.00 | 0.00 | 33 | 1003.2 |
| 20260505151837 | 26 | 221 | 8.0 | 20.9 | 0.00 | 0.00 | 0.00 | 32 | 1003.2 |
| 20260505151337 | 26 | 161 | 12.9 | 20.9 | 0.00 | 0.00 | 0.00 | 32 | 1003.4 |
| 20260505150837 | 27 | 207 | 9.7 | 25.7 | 0.00 | 0.00 | 0.00 | 31 | 1003.6 |
| 20260505150337 | 27 | 180 | 4.8 | 25.7 | 0.00 | 0.00 | 0.00 | 31 | 1003.3 |
| 20260505140337 | 28 | 200 | 4.8 | 17.7 | 0.00 | 0.00 | 0.00 | 26 | 1004.0 |
| 20260505124837 | 27 | 145 | 6.4 | 14.5 | 0.00 | 0.00 | 0.00 | 31 | 1005.5 |
| 20260505124337 | 27 | 208 | 8.0 | 14.5 | 0.00 | 0.00 | 0.00 | 32 | 1005.4 |
| 20260505123837 | 27 | 214 | 4.8 | 17.7 | 0.00 | 0.00 | 0.00 | 34 | 1005.7 |
| 20260505123338 | 26 | 245 | 1.6 | 19.3 | 0.00 | 0.00 | 0.00 | 36 | 1006.0 |
| 20260505122837 | 26 | 214 | 6.4 | 22.5 | 0.00 | 0.00 | 0.00 | 36 | 1005.8 |
| 20260505121837 | 26 | 194 | 14.5 | 22.5 | 0.00 | 0.00 | 0.00 | 35 | 1006.3 |
| 20260505120837 | 26 | 160 | 1.6 | 19.3 | 0.00 | 0.00 | 0.00 | 35 | 1006.2 |
| 20260505120337 | 26 | 200 | 11.3 | 22.5 | 0.00 | 0.00 | 0.00 | 34 | 1006.0 |
| 20260505115837 | 26 | 158 | 14.5 | 22.5 | 0.00 | 0.00 | 0.00 | 36 | 1006.2 |
| 20260505115336 | 25 | 218 | 17.7 | 24.1 | 0.00 | 0.00 | 0.00 | 37 | 1006.3 |
| 20260505114838 | 25 | 206 | 9.7 | 24.1 | 0.00 | 0.00 | 0.00 | 36 | 1006.4 |
| 20260505114337 | 25 | 180 | 4.8 | 17.7 | 0.00 | 0.00 | 0.00 | 36 | 1006.5 |
| 20260505113847 | 25 | 160 | 11.3 | 17.7 | 0.00 | 0.00 | 0.00 | 38 | 1006.6 |
| 20260505113337 | 25 | 206 | 8.0 | 14.5 | 0.00 | 0.00 | 0.00 | 37 | 1006.8 |
| 20260505112837 | 25 | 202 | 6.4 | 20.9 | 0.00 | 0.00 | 0.00 | 39 | 1006.5 |
| 20260505112337 | 25 | 210 | 6.4 | 20.9 | 0.00 | 0.00 | 0.00 | 39 | 1006.8 |
| 20260505111837 | 25 | 213 | 8.0 | 22.5 | 0.00 | 0.00 | 0.00 | 39 | 1006.9 |
| 20260505111338 | 24 | 146 | 4.8 | 22.5 | 0.00 | 0.00 | 0.00 | 40 | 1007.0 |
| 20260505110838 | 24 | 217 | 4.8 | 16.1 | 0.00 | 0.00 | 0.00 | 39 | 1006.8 |
| 20260505110337 | 24 | 208 | 4.8 | 20.9 | 0.00 | 0.00 | 0.00 | 39 | 1006.8 |
| 20260505101838 | 23 | 171 | 3.2 | 24.1 | 0.00 | 0.00 | 0.00 | 44 | 1007.3 |
| 20260505100837 | 23 | 192 | 8.0 | 12.9 | 0.00 | 0.00 | 0.00 | 43 | 1007.7 |
| 20260505095838 | 22 | 145 | 6.4 | 14.5 | 0.00 | 0.00 | 0.00 | 45 | 1007.8 |
| 20260505094837 | 22 | 205 | 9.7 | 11.3 | 0.00 | 0.00 | 0.00 | 45 | 1007.8 |
| 20260505094337 | 22 | 238 | 4.8 | 20.9 | 0.00 | 0.00 | 0.00 | 45 | 1007.9 |
| 20260505093837 | 21 | 175 | 3.2 | 20.9 | 0.00 | 0.00 | 0.00 | 47 | 1007.9 |
| 20260505093340 | 22 | 166 | 9.7 | 11.3 | 0.00 | 0.00 | 0.00 | 47 | 1008.1 |
| 20260505092840 | 22 | 164 | 9.7 | 14.5 | 0.00 | 0.00 | 0.00 | 45 | 1008.1 |
| 20260505091839 | 21 | 168 | 3.2 | 11.3 | 0.00 | 0.00 | 0.00 | 48 | 1008.2 |
| 20260505091340 | 21 | 145 | 6.4 | 11.3 | 0.00 | 0.00 | 0.00 | 49 | 1008.0 |
| 20260505090340 | 21 | 156 | 4.8 | 12.9 | 0.00 | 0.00 | 0.00 | 50 | 1008.4 |
| 20260505085840 | 21 | 62 | 0.0 | 12.9 | 0.00 | 0.00 | 0.00 | 49 | 1008.0 |
| 20260505084838 | 21 | 146 | 6.4 | 11.3 | 0.00 | 0.00 | 0.00 | 50 | 1008.4 |
| 20260505084338 | 21 | 287 | 1.6 | 11.3 | 0.00 | 0.00 | 0.00 | 50 | 1008.4 |
| 20260505083837 | 21 | 111 | 4.8 | 9.7 | 0.00 | 0.00 | 0.00 | 51 | 1008.4 |
| 20260505083338 | 21 | 136 | 3.2 | 8.0 | 0.00 | 0.00 | 0.00 | 50 | 1008.5 |
| 20260505082837 | 21 | 348 | 3.2 | 6.4 | 0.00 | 0.00 | 0.00 | 51 | 1008.0 |
| 20260505082337 | 21 | 201 | 3.2 | 8.0 | 0.00 | 0.00 | 0.00 | 50 | 1008.4 |
| 20260505081836 | 21 | 158 | 0.0 | 9.7 | 0.00 | 0.00 | 0.00 | 51 | 1008.5 |
| 20260505081336 | 20 | 173 | 8.0 | 9.7 | 0.00 | 0.00 | 0.00 | 51 | 1008.4 |
| 20260505080826 | 20 | 193 | 0.0 | 9.7 | 0.00 | 0.00 | 0.00 | 53 | 1008.5 |
| 20260505080321 | 19 | 82 | 9.7 | 9.7 | 0.00 | 0.00 | 0.00 | 54 | 1008.8 |
| 20260505075821 | 20 | 233 | 1.6 | 8.0 | 0.00 | 0.00 | 0.00 | 52 | 1008.6 |
| 20260505075321 | 20 | 125 | 1.6 | 6.4 | 0.00 | 0.00 | 0.00 | 53 | 1008.6 |
| 20260505074821 | 20 | 46 | 6.4 | 6.4 | 0.00 | 0.00 | 0.00 | 51 | 1008.7 |
| 20260505074321 | 20 | 5 | 1.6 | 3.2 | 0.00 | 0.00 | 0.00 | 50 | 1008.5 |
| 20260505073821 | 20 | 8 | 1.6 | 4.8 | 0.00 | 0.00 | 0.00 | 52 | 1008.6 |
| 20260505073321 | 19 | 194 | 3.2 | 4.8 | 0.00 | 0.00 | 0.00 | 53 | 1008.8 |
| 20260505071821 | 17 | 155 | 0.0 | 3.2 | 0.00 | 0.00 | 0.00 | 57 | 1008.9 |
| 20260505071321 | 17 | 92 | 3.2 | 3.2 | 0.00 | 0.00 | 0.00 | 57 | 1008.9 |
| 20260505070822 | 17 | 311 | 0.0 | 3.2 | 0.00 | 0.00 | 0.00 | 57 | 1008.8 |
| 20260505065821 | 17 | 14 | 0.0 | 4.8 | 0.00 | 0.00 | 0.00 | 58 | 1008.6 |
| 20260505065321 | 17 | 198 | 3.2 | 4.8 | 0.00 | 0.00 | 0.00 | 58 | 1008.7 |
| 20260505064821 | 16 | 126 | 0.0 | 4.8 | 0.00 | 0.00 | 0.00 | 58 | 1008.7 |
| 20260505064321 | 16 | 135 | 0.0 | 4.8 | 0.00 | 0.00 | 0.00 | 59 | 1008.9 |
| 20260505063821 | 16 | 59 | 0.0 | 4.8 | 0.00 | 0.00 | 0.00 | 59 | 1008.9 |
| 20260505063321 | 16 | 133 | 3.2 | 6.4 | 0.00 | 0.00 | 0.00 | 60 | 1008.6 |
| 20260505062821 | 16 | 96 | 1.6 | 6.4 | 0.00 | 0.00 | 0.00 | 60 | 1008.7 |
| 20260505061820 | 16 | 124 | 3.2 | 4.8 | 0.00 | 0.00 | 0.00 | 58 | 1009.2 |
| 20260505061320 | 16 | 134 | 0.0 | 4.8 | 0.00 | 0.00 | 0.00 | 59 | 1008.7 |
| 20260505060821 | 16 | 103 | 0.0 | 4.8 | 0.00 | 0.00 | 0.00 | 58 | 1008.9 |
| 20260505060320 | 16 | 135 | 0.0 | 4.8 | 0.00 | 0.00 | 0.00 | 58 | 1008.7 |
| 20260505055823 | 16 | 202 | 1.6 | 4.8 | 0.00 | 0.00 | 0.00 | 57 | 1008.7 |
| 20260505055323 | 16 | 100 | 4.8 | 4.8 | 0.00 | 0.00 | 0.00 | 59 | 1008.8 |
| 20260505054320 | 14 | 8 | 3.2 | 3.2 | 0.00 | 0.00 | 0.00 | 65 | 1008.9 |
| 20260505053821 | 14 | 11 | 3.2 | 3.2 | 0.00 | 0.00 | 0.00 | 66 | 1008.7 |
| 20260505052821 | 13 | 346 | 0.0 | 3.2 | 0.00 | 0.00 | 0.00 | 68 | 1008.7 |
| 20260505052321 | 13 | 32 | 0.0 | 3.2 | 0.00 | 0.00 | 0.00 | 68 | 1008.8 |
| 20260505051822 | 12 | 47 | 0.0 | 3.2 | 0.00 | 0.00 | 0.00 | 70 | 1008.7 |
| 20260505051320 | 12 | 25 | 0.0 | 3.2 | 0.00 | 0.00 | 0.00 | 71 | 1008.7 |
| 20260505050821 | 12 | 129 | 0.0 | 3.2 | 0.00 | 0.00 | 0.00 | 72 | 1008.6 |
| 20260505050321 | 12 | 77 | 0.0 | 3.2 | 0.00 | 0.00 | 0.00 | 73 | 1008.7 |
| 20260505041320 | 9 | 126 | 1.6 | 1.6 | 0.00 | 0.00 | 0.00 | 80 | 1008.5 |
| 20260505040819 | 9 | 77 | 0.0 | 3.2 | 0.00 | 0.00 | 0.00 | 79 | 1008.7 |
| 20260505040320 | 9 | 37 | 0.0 | 3.2 | 0.00 | 0.00 | 0.00 | 80 | 1008.4 |
| 20260505035820 | 9 | 48 | 1.6 | 3.2 | 0.00 | 0.00 | 0.00 | 81 | 1008.7 |
| 20260505034819 | 8 | 44 | 0.0 | 1.6 | 0.00 | 0.00 | 0.00 | 81 | 1008.5 |
| 20260505034320 | 8 | 139 | 0.0 | 1.6 | 0.00 | 0.00 | 0.00 | 81 | 1008.6 |
| 20260505033820 | 9 | 37 | 0.0 | 3.2 | 0.00 | 0.00 | 0.00 | 81 | 1008.6 |
| 20260505033320 | 9 | 62 | 0.0 | 4.8 | 0.00 | 0.00 | 0.00 | 80 | 1008.6 |
| 20260505032820 | 9 | 37 | 3.2 | 4.8 | 0.00 | 0.00 | 0.00 | 80 | 1008.7 |
| 20260505032320 | 9 | 36 | 1.6 | 3.2 | 0.00 | 0.00 | 0.00 | 80 | 1008.4 |
| 20260505031320 | 9 | 15 | 0.0 | 3.2 | 0.00 | 0.00 | 0.00 | 79 | 1008.7 |
| 20260505030819 | 9 | 51 | 3.2 | 3.2 | 0.00 | 0.00 | 0.00 | 79 | 1008.4 |
| 20260505030320 | 10 | 45 | 1.6 | 3.2 | 0.00 | 0.00 | 0.00 | 78 | 1008.6 |
| 20260505025320 | 10 | 13 | 3.2 | 3.2 | 0.00 | 0.00 | 0.00 | 78 | 1008.7 |
| 20260505024820 | 10 | 60 | 1.6 | 3.2 | 0.00 | 0.00 | 0.00 | 77 | 1008.7 |
| 20260505024320 | 10 | 39 | 0.0 | 3.2 | 0.00 | 0.00 | 0.00 | 77 | 1008.6 |
| 20260505023820 | 10 | 40 | 1.6 | 3.2 | 0.00 | 0.00 | 0.00 | 78 | 1008.6 |
| 20260505023320 | 10 | 38 | 1.6 | 3.2 | 0.00 | 0.00 | 0.00 | 78 | 1008.9 |
| 20260505022320 | 10 | 44 | 1.6 | 3.2 | 0.00 | 0.00 | 0.00 | 78 | 1008.7 |
| 20260505021320 | 10 | 19 | 3.2 | 3.2 | 0.00 | 0.00 | 0.00 | 77 | 1008.8 |
| 20260505020320 | 10 | 46 | 1.6 | 3.2 | 0.00 | 0.00 | 0.00 | 76 | 1008.8 |
| 20260505015820 | 10 | 50 | 0.0 | 3.2 | 0.00 | 0.00 | 0.00 | 75 | 1008.9 |
| 20260505015320 | 11 | 25 | 0.0 | 3.2 | 0.00 | 0.00 | 0.00 | 75 | 1009.2 |
| 20260505014820 | 11 | 29 | 0.0 | 3.2 | 0.00 | 0.00 | 0.00 | 75 | 1009.3 |
| 20260505013820 | 11 | 57 | 0.0 | 3.2 | 0.00 | 0.00 | 0.00 | 74 | 1009.0 |
| 20260505012820 | 11 | 30 | 1.6 | 3.2 | 0.00 | 0.00 | 0.00 | 74 | 1009.0 |
| 20260505012321 | 11 | 33 | 0.0 | 3.2 | 0.00 | 0.00 | 0.00 | 74 | 1009.2 |
| 20260505011820 | 11 | 41 | 3.2 | 3.2 | 0.00 | 0.00 | 0.00 | 73 | 1008.8 |
| 20260505011320 | 11 | 322 | 0.0 | 4.8 | 0.00 | 0.00 | 0.00 | 73 | 1008.9 |
| 20260505010820 | 11 | 30 | 3.2 | 4.8 | 0.00 | 0.00 | 0.00 | 72 | 1009.2 |
| 20260505010320 | 11 | 28 | 3.2 | 6.4 | 0.00 | 0.00 | 0.00 | 71 | 1009.3 |
| 20260505005820 | 12 | 64 | 1.6 | 6.4 | 0.00 | 0.00 | 0.00 | 70 | 1009.3 |
| 20260505005320 | 12 | 344 | 1.6 | 4.8 | 0.00 | 0.00 | 0.00 | 70 | 1009.3 |
| 20260505004320 | 12 | 13 | 1.6 | 4.8 | 0.00 | 0.00 | 0.00 | 69 | 1009.3 |
| 20260505003820 | 12 | 45 | 3.2 | 4.8 | 0.00 | 0.00 | 0.00 | 69 | 1009.5 |
| 20260505003320 | 12 | 37 | 3.2 | 4.8 | 0.00 | 0.00 | 0.00 | 69 | 1009.4 |
| 20260505002820 | 12 | 34 | 3.2 | 4.8 | 0.00 | 0.00 | 0.00 | 67 | 1009.5 |
| 20260505002320 | 13 | 24 | 1.6 | 4.8 | 0.00 | 0.00 | 0.00 | 65 | 1009.2 |
| 20260505001320 | 13 | 48 | 1.6 | 4.8 | 0.00 | 0.00 | 0.00 | 64 | 1009.3 |
| 20260505000820 | 13 | 35 | 1.6 | 4.8 | 0.00 | 0.00 | 0.00 | 63 | 1009.5 |
| 20260505000320 | 13 | 24 | 3.2 | 4.8 | 0.00 | 0.00 | 0.00 | 63 | 1009.5 |
| 20260504235820 | 13 | 13 | 3.2 | 4.8 | 0.00 | 0.00 | 0.00 | 64 | 1009.4 |
| 20260504234820 | 13 | 53 | 0.0 | 3.2 | 0.00 | 0.00 | 0.00 | 64 | 1009.6 |
| 20260504234320 | 14 | 21 | 3.2 | 3.2 | 0.00 | 0.00 | 0.00 | 63 | 1009.5 |
| 20260504233320 | 14 | 47 | 1.6 | 4.8 | 0.00 | 0.00 | 0.00 | 60 | 1009.6 |
| 20260504232820 | 15 | 15 | 1.6 | 4.8 | 0.00 | 0.00 | 0.00 | 59 | 1009.6 |
| 20260504232319 | 15 | 29 | 0.0 | 4.8 | 0.00 | 0.00 | 0.00 | 58 | 1009.9 |
| 20260504231821 | 15 | 60 | 0.0 | 4.8 | 0.00 | 0.00 | 0.00 | 57 | 1009.9 |
| 20260504231320 | 15 | 25 | 3.2 | 4.8 | 0.00 | 0.00 | 0.00 | 56 | 1009.8 |
| 20260504230320 | 16 | 27 | 1.6 | 3.2 | 0.00 | 0.00 | 0.00 | 54 | 1009.6 |
| 20260504225820 | 16 | 230 | 0.0 | 4.8 | 0.00 | 0.00 | 0.00 | 52 | 1009.7 |
| 20260504225319 | 17 | 232 | 1.6 | 6.4 | 0.00 | 0.00 | 0.00 | 51 | 1009.9 |
| 20260504224821 | 17 | 200 | 3.2 | 8.0 | 0.00 | 0.00 | 0.00 | 51 | 1009.9 |
| 20260504223820 | 17 | 177 | 3.2 | 6.4 | 0.00 | 0.00 | 0.00 | 50 | 1010.1 |
| 20260504223320 | 17 | 219 | 6.4 | 6.4 | 0.00 | 0.00 | 0.00 | 50 | 1009.9 |
| 20260504222820 | 17 | 131 | 0.0 | 3.2 | 0.00 | 0.00 | 0.00 | 50 | 1009.6 |
| 20260504221749 | 17 | 33 | 1.6 | 11.3 | 0.00 | 0.00 | 0.00 | 49 | 1009.9 |
| 20260504221249 | 17 | 202 | 11.3 | 11.3 | 0.00 | 0.00 | 0.00 | 48 | 1009.8 |
| 20260504220750 | 17 | 198 | 3.2 | 9.7 | 0.00 | 0.00 | 0.00 | 48 | 1009.8 |
| 20260504220249 | 18 | 197 | 4.8 | 4.8 | 0.00 | 0.00 | 0.00 | 47 | 1009.9 |
| 20260504215748 | 18 | 195 | 1.6 | 4.8 | 0.00 | 0.00 | 0.00 | 47 | 1009.8 |
| 20260504215249 | 18 | 174 | 3.2 | 9.7 | 0.00 | 0.00 | 0.00 | 46 | 1009.7 |
| 20260504214750 | 18 | 59 | 3.2 | 14.5 | 0.00 | 0.00 | 0.00 | 46 | 1009.9 |
| 20260504214249 | 18 | 141 | 4.8 | 14.5 | 0.00 | 0.00 | 0.00 | 45 | 1009.8 |
| 20260504212748 | 18 | 203 | 3.2 | 11.3 | 0.00 | 0.00 | 0.00 | 44 | 1009.7 |
| 20260504212250 | 18 | 211 | 3.2 | 9.7 | 0.00 | 0.00 | 0.00 | 44 | 1009.8 |
| 20260504211248 | 18 | 233 | 1.6 | 11.3 | 0.00 | 0.00 | 0.00 | 43 | 1010.0 |
| 20260504210248 | 19 | 216 | 3.2 | 9.7 | 0.00 | 0.00 | 0.00 | 42 | 1009.9 |
| 20260504205749 | 19 | 243 | 3.2 | 19.3 | 0.00 | 0.00 | 0.00 | 42 | 1010.2 |
| 20260504205248 | 19 | 178 | 3.2 | 19.3 | 0.00 | 0.00 | 0.00 | 41 | 1010.0 |
| 20260504204748 | 19 | 217 | 6.4 | 9.7 | 0.00 | 0.00 | 0.00 | 41 | 1010.0 |
| 20260504204249 | 19 | 226 | 1.6 | 12.9 | 0.00 | 0.00 | 0.00 | 41 | 1010.2 |
| 20260504203748 | 19 | 99 | 3.2 | 17.7 | 0.00 | 0.00 | 0.00 | 41 | 1010.2 |
| 20260504203249 | 19 | 111 | 6.4 | 17.7 | 0.00 | 0.00 | 0.00 | 40 | 1010.2 |
| 20260504202248 | 20 | 175 | 3.2 | 11.3 | 0.00 | 0.00 | 0.00 | 40 | 1010.1 |
| 20260504201749 | 20 | 224 | 9.7 | 20.9 | 0.00 | 0.00 | 0.00 | 39 | 1010.1 |
| 20260504201248 | 20 | 151 | 6.4 | 20.9 | 0.00 | 0.00 | 0.00 | 39 | 1010.0 |
| 20260504200749 | 20 | 205 | 8.0 | 20.9 | 0.00 | 0.00 | 0.00 | 39 | 1010.1 |
| 20260504200248 | 20 | 199 | 16.1 | 19.3 | 0.00 | 0.00 | 0.00 | 38 | 1010.1 |
| 20260504195749 | 20 | 201 | 4.8 | 19.3 | 0.00 | 0.00 | 0.00 | 38 | 1010.2 |
| 20260504195249 | 20 | 210 | 8.0 | 17.7 | 0.00 | 0.00 | 0.00 | 38 | 1010.2 |
| 20260504194749 | 20 | 198 | 4.8 | 17.7 | 0.00 | 0.00 | 0.00 | 38 | 1010.2 |
| 20260504194248 | 20 | 193 | 3.2 | 17.7 | 0.00 | 0.00 | 0.00 | 37 | 1010.1 |
| 20260504193749 | 20 | 179 | 9.7 | 17.7 | 0.00 | 0.00 | 0.00 | 37 | 1010.3 |
| 20260504193249 | 20 | 182 | 8.0 | 17.7 | 0.00 | 0.00 | 0.00 | 37 | 1010.3 |
| 20260504192749 | 20 | 220 | 6.4 | 17.7 | 0.00 | 0.00 | 0.00 | 37 | 1010.3 |
| 20260504192248 | 20 | 180 | 6.4 | 20.9 | 0.00 | 0.00 | 0.00 | 36 | 1010.4 |
| 20260504191749 | 20 | 206 | 11.3 | 20.9 | 0.00 | 0.00 | 0.00 | 36 | 1010.2 |
| 20260504191248 | 21 | 85 | 9.7 | 19.3 | 0.00 | 0.00 | 0.00 | 36 | 1010.4 |
| 20260504190749 | 21 | 206 | 6.4 | 17.7 | 0.00 | 0.00 | 0.00 | 36 | 1010.3 |
| 20260504190248 | 21 | 187 | 4.8 | 20.9 | 0.00 | 0.00 | 0.00 | 36 | 1010.1 |
| 20260504185749 | 21 | 134 | 3.2 | 20.9 | 0.00 | 0.00 | 0.00 | 36 | 1010.4 |
| 20260504185249 | 21 | 158 | 6.4 | 14.5 | 0.00 | 0.00 | 0.00 | 36 | 1010.5 |
| 20260504184749 | 21 | 69 | 1.6 | 14.5 | 0.00 | 0.00 | 0.00 | 35 | 1010.6 |
| 20260504184248 | 21 | 179 | 9.7 | 14.5 | 0.00 | 0.00 | 0.00 | 36 | 1010.2 |
| 20260504182749 | 21 | 186 | 6.4 | 8.0 | 0.00 | 0.00 | 0.00 | 36 | 1010.5 |
| 20260504182248 | 21 | 137 | 4.8 | 14.5 | 0.00 | 0.00 | 0.00 | 36 | 1010.5 |
| 20260504181748 | 21 | 210 | 0.0 | 14.5 | 0.00 | 0.00 | 0.00 | 35 | 1010.7 |
| 20260504181249 | 21 | 123 | 3.2 | 9.7 | 0.00 | 0.00 | 0.00 | 35 | 1010.4 |
| 20260504180748 | 21 | 159 | 6.4 | 9.7 | 0.00 | 0.00 | 0.00 | 35 | 1010.5 |
| 20260504180248 | 21 | 92 | 4.8 | 17.7 | 0.00 | 0.00 | 0.00 | 35 | 1010.4 |
| 20260504175749 | 22 | 143 | 6.4 | 17.7 | 0.00 | 0.00 | 0.00 | 34 | 1010.5 |
| 20260504174750 | 22 | 173 | 3.2 | 9.7 | 0.00 | 0.00 | 0.00 | 33 | 1010.7 |
| 20260504174249 | 22 | 128 | 0.0 | 9.7 | 0.00 | 0.00 | 0.00 | 33 | 1010.6 |
| 20260504173748 | 22 | 220 | 6.4 | 12.9 | 0.00 | 0.00 | 0.00 | 33 | 1010.6 |